Location: Igri�s
(42.2144°N, 0.4320°W)
Time: 10:14:29
(UTC+00:00)

SL-4 R/B - Pass Details

Date: 13 August 2020
Orbit: 428 x 665 km, 51.6° (Epoch: 18 September)

Event Time Altitude Azimuth Distance (km) Brightness Sun altitude
Rises 20:07:50 0° 263° (W) 2,738 6.5 -11.3°
Reaches altitude 10° 20:10:20 10° 273° (W) 1,798 5.7 -11.7°
Maximum altitude 20:14:01 32° 338° (NNW) 895 3.7 -12.3°
Drops below altitude 10° 20:17:28 10° 43° (NE) 1,675 4.4 -12.8°
Sets 20:19:43 0° 54° (NE) 2,518 5.2 -13.2°
